Address 0xbca830Eb8F19F1E0FEa4404FC0778921Ee2022dd 1

 
Txn Hash Method
Block
From
To
Value [Txn Fee]
0xc77a320d572934cd5e9554e3e9a243f536733b6eec40135847ebf3b16d677ec4Transfer1874412982024-03-05 19:58:0976 days 11 hrs ago0xbca830eb8f19f1e0fea4404fc0778921ee2022ddOUT Tether: USDT Token0 ETH0.00047522 6.96725
0x2a5f9e106c46174250dbe8cb146c2c6cc6afcb7f9573118b6d38638bbec94381Transfer1874040362024-03-05 17:16:1376 days 14 hrs ago0xbca830eb8f19f1e0fea4404fc0778921ee2022ddOUT Tether: USDT Token0 ETH0.00028656 0.1485
0x2bedd90cca53b62f83fb92121ebb5850b2c48fc22586ef3c5e377f60ce0958c7Execute1872767912024-03-05 8:18:3676 days 23 hrs ago0xbca830eb8f19f1e0fea4404fc0778921ee2022ddOUT Uniswap: Universal Router 40 ETH0.00014246 0.1
0x41641b5bd0770c72ffce84c29cf97aa1485b6a1e96b1c6d545418e92c6b644afExecute1872043012024-03-05 3:07:5877 days 4 hrs ago0xbca830eb8f19f1e0fea4404fc0778921ee2022ddOUT Uniswap: Universal Router 40 ETH0.00040742 0.1
0x2d042dcf6196d6eee24cf8247644afeca1909448ec0741ace2b3c39a6d1205a6Execute1863488602024-03-02 12:41:4579 days 18 hrs ago0xbca830eb8f19f1e0fea4404fc0778921ee2022ddOUT Uniswap: Universal Router 40 ETH0.00020293 0.1
0x8ef27d83fd7c43afeec4865254caa0bb8f4b0f8cfe6f988c8fa71dbbf60ad05bExecute1862499302024-03-02 5:40:4380 days 1 hr ago0xbca830eb8f19f1e0fea4404fc0778921ee2022ddOUT Uniswap: Universal Router 40 ETH0.00022895 0.1
0x64aa1ff70011d4f46477e40f3177aede6a559f77d04502267978766ce153f92eExecute1859690882024-03-01 9:25:4880 days 21 hrs ago0xbca830eb8f19f1e0fea4404fc0778921ee2022ddOUT Uniswap: Universal Router 40 ETH0.00028067 0.1
0xa429e230207e99a6bd3ca31a9c2810bf3ad5e3ea8b14838c6a65818c50daec43Execute1859122742024-03-01 5:24:4481 days 1 hr ago0xbca830eb8f19f1e0fea4404fc0778921ee2022ddOUT Uniswap: Universal Router 40 ETH0.0002493 0.1
0x06261d23a9c12524ac08aa81af139b44791015d5a52c69580a9858fbe2e76cf2Execute1840081972024-02-24 13:38:2986 days 17 hrs ago0xbca830eb8f19f1e0fea4404fc0778921ee2022ddOUT Uniswap: Universal Router 40 ETH0.00020166 0.1
0x17f5c06a0f3445d176b9e08ec1914dd15324317a876c2a32797a3e5890a67dd9Execute1839840362024-02-24 11:56:0586 days 19 hrs ago0xbca830eb8f19f1e0fea4404fc0778921ee2022ddOUT Uniswap: Universal Router 40 ETH0.00017835 0.1
0xa421bfaa5bedcbaa3dbee730981ad7ba96be8b2a2e6720598b76d46092965806Transfer1697806302024-01-12 17:39:36129 days 13 hrs ago0xbca830eb8f19f1e0fea4404fc0778921ee2022ddOUT Circle: USDC Token0 ETH0.00013594 0.1
0xbe1e59d0ef2784259372f0df1547a2c50be0556a6ddafdab6dd32c97a2ae6558Transfer1694095802024-01-11 15:31:33130 days 15 hrs ago0xbca830eb8f19f1e0fea4404fc0778921ee2022ddOUT Tether: USDT Token0 ETH0.00015109 0.1
0x6afc4536eaffc0facb4eb9ccb50d39b6254827c23f9b0857010040efe4091d2aExecute1694094172024-01-11 15:30:52130 days 15 hrs ago0xbca830eb8f19f1e0fea4404fc0778921ee2022ddOUT Uniswap: Universal Router V1 20 ETH0.00032772 0.1
0x6cad34f3f80ed8b77b556f4cf4f6b9574234ea7be1bd4595d345fda4fb3f02d9Execute1694093622024-01-11 15:30:38130 days 15 hrs ago0xbca830eb8f19f1e0fea4404fc0778921ee2022ddOUT Uniswap: Universal Router V1 20 ETH0.00032278 0.1
0xa75559677f136a416909846d1fb13ecbef092b2e35243cef3e238839e7a1fa28Execute1691011082024-01-10 18:00:16131 days 13 hrs ago0xbca830eb8f19f1e0fea4404fc0778921ee2022ddOUT Uniswap: Universal Router V1 20 ETH0.00019892 0.1
0x529e812260b5f8b837755266b5170d58276470a50a2fbc537e9908e06b302b04Execute1691004352024-01-10 17:57:27131 days 13 hrs ago0xbca830eb8f19f1e0fea4404fc0778921ee2022ddOUT Uniswap: Universal Router V1 20 ETH0.00020305 0.1
0x627fa6cae96d9d75703b349d5e46b8d396539491843c30f725a8b8480b843998Transfer1690645792024-01-10 15:26:51131 days 15 hrs ago0xbca830eb8f19f1e0fea4404fc0778921ee2022ddOUT Tether: USDT Token0 ETH0.00008546 0.1
0x520c6a2d3ff9758311b94089029d340a7ef86976f16c550597dc5509494d778cExecute1690641402024-01-10 15:25:01131 days 15 hrs ago0xbca830eb8f19f1e0fea4404fc0778921ee2022ddOUT Uniswap: Universal Router V1 20 ETH0.0001836 0.1
0x88a68a4be4ceeff4c2536cc168169add19309581b3bdd91f24465692df989605Execute1687789222024-01-09 19:23:32132 days 11 hrs ago0xbca830eb8f19f1e0fea4404fc0778921ee2022ddOUT Uniswap: Universal Router V1 20 ETH0.000107940.1
0x73b151cdace199cf89b0233158f236ca4c9ef8c3fd79b9aaae730f473b229ea6Execute1687726402024-01-09 18:56:20132 days 12 hrs ago0xbca830eb8f19f1e0fea4404fc0778921ee2022ddOUT Uniswap: Universal Router V1 20 ETH0.000113550.1
0xca43c79be0616c7730bda9df3fe8a8db673cdac4ce375fb52209d2a91a11c416Execute1687714442024-01-09 18:51:13132 days 12 hrs ago0xbca830eb8f19f1e0fea4404fc0778921ee2022ddOUT Uniswap: Universal Router V1 20 ETH0.00012205 0.1
0x75a651dac1706816c19c1c8ce90f595d25f20493e8230526bab7e125a36b77edExecute1687579672024-01-09 17:53:54132 days 13 hrs ago0xbca830eb8f19f1e0fea4404fc0778921ee2022ddOUT Uniswap: Universal Router V1 20 ETH0.0001418 0.1
0x867eb2aafa0990028b13d10a267b74fb7ca40d8d807ea11c55f786d621d01687Execute1687566772024-01-09 17:48:30132 days 13 hrs ago0xbca830eb8f19f1e0fea4404fc0778921ee2022ddOUT Uniswap: Universal Router V1 20 ETH0.00015083 0.1
0x037eefe91aa1dcfd41f1656f44db24d3f8c3d2c34c40aac2a93bb9a3d5ae7f96Execute1687467412024-01-09 17:07:03132 days 14 hrs ago0xbca830eb8f19f1e0fea4404fc0778921ee2022ddOUT Uniswap: Universal Router V1 20 ETH0.00012391 0.1
0x3c487035e9d1f9ea2860d55a968e05406f53548ac65bded52fc9136260ba7e4aExecute1687446592024-01-09 16:58:21132 days 14 hrs ago0xbca830eb8f19f1e0fea4404fc0778921ee2022ddOUT Uniswap: Universal Router V1 20 ETH0.00013425 0.1
[ Download CSV Export 
Latest 2 internal transactions
Parent Txn Hash Block From To Value
0x0d7a6290e3867d8a5361a823bba82419a67f9d627652c636e51c29c4be9d34ed1645751712023-12-28 10:16:40144 days 21 hrs ago Uniswap: Universal Router V1 20xbca830eb8f19f1e0fea4404fc0778921ee2022dd0.010441430910880842 ETH
0x705aea58c9a9fe3a37f4a6f91346113b0504d179f7750e3533be946debc36da31645272242023-12-28 6:57:03145 days 24 mins ago Uniswap: Universal Router V1 20xbca830eb8f19f1e0fea4404fc0778921ee2022dd0.00756089915607647 ETH
[ Download CSV Export 
Loading

Contract Name:
0 ETH

Compiler Version
0

Optimization Enabled:
0 ETH

Other Settings:
-NA-
Block Transaction Gas Used Reward
Age Block Fee Address BC Fee Address Voting Power Jailed Incoming
Block Uncle Number Difficulty Gas Used Reward
Loading
Make sure to use the "Vote Down" button for any spammy posts, and the "Vote Up" for interesting conversations.